TimeCST,TemperatureF,Dew PointF,Humidity,Sea Level PressureIn,VisibilityMPH,Wind Direction,Wind SpeedMPH,Gust SpeedMPH,PrecipitationIn,Events,Conditions,WindDirDegrees,DateUTC
12:15 AM,33.8,30.2,87,30.14,10.0,Calm,Calm,-,N/A,,Clear,0,2013-02-06 06:15:00
12:35 AM,32.0,28.4,87,30.14,10.0,Calm,Calm,-,N/A,,Clear,0,2013-02-06 06:35:00
12:55 AM,32.0,28.4,87,30.14,10.0,Calm,Calm,-,N/A,,Clear,0,2013-02-06 06:55:00
1:15 AM,32.0,28.4,87,30.15,10.0,Calm,Calm,-,N/A,,Clear,0,2013-02-06 07:15:00
1:35 AM,28.4,28.4,100,30.15,10.0,North,3.5,-,N/A,,Clear,350,2013-02-06 07:35:00
1:55 AM,28.4,28.4,100,30.15,10.0,Calm,Calm,-,N/A,,Clear,0,2013-02-06 07:55:00
2:15 AM,28.4,28.4,100,30.15,8.0,Calm,Calm,-,N/A,,Clear,0,2013-02-06 08:15:00
2:35 AM,26.6,26.6,100,30.16,7.0,Calm,Calm,-,N/A,,Clear,0,2013-02-06 08:35:00
2:55 AM,26.6,26.6,100,30.15,8.0,Calm,Calm,-,N/A,,Clear,0,2013-02-06 08:55:00
3:15 AM,28.4,28.4,100,30.16,7.0,Calm,Calm,-,N/A,,Clear,0,2013-02-06 09:15:00
3:35 AM,28.4,28.4,100,30.16,7.0,Calm,Calm,-,N/A,,Clear,0,2013-02-06 09:35:00
3:55 AM,26.6,26.6,100,30.16,8.0,Calm,Calm,-,N/A,,Clear,0,2013-02-06 09:55:00
4:15 AM,26.6,26.6,100,30.16,7.0,North,-9999.0,-,N/A,,Clear,0,2013-02-06 10:15:00
4:35 AM,24.8,24.8,100,30.17,5.0,Calm,Calm,-,N/A,,Clear,0,2013-02-06 10:35:00
4:55 AM,24.8,24.8,100,30.17,6.0,Calm,Calm,-,N/A,,Clear,0,2013-02-06 10:55:00
5:15 AM,24.8,24.8,100,30.17,7.0,Calm,Calm,-,N/A,,Clear,0,2013-02-06 11:15:00
5:35 AM,24.8,24.8,100,30.17,5.0,Calm,Calm,-,N/A,,Clear,0,2013-02-06 11:35:00
5:55 AM,24.8,24.8,100,30.17,5.0,Calm,Calm,-,N/A,,Clear,0,2013-02-06 11:55:00
6:15 AM,24.8,24.8,100,30.18,5.0,Calm,Calm,-,N/A,,Clear,0,2013-02-06 12:15:00
6:35 AM,24.8,24.8,100,30.18,5.0,Calm,Calm,-,N/A,,Clear,0,2013-02-06 12:35:00
6:55 AM,24.8,24.8,100,30.17,5.0,Calm,Calm,-,N/A,,Clear,0,2013-02-06 12:55:00
7:35 AM,23.0,23.0,100,30.19,5.0,Calm,Calm,-,N/A,,Clear,0,2013-02-06 13:35:00
7:55 AM,24.8,24.8,100,30.20,5.0,Calm,Calm,-,N/A,,Clear,0,2013-02-06 13:55:00
8:15 AM,28.4,26.6,93,30.21,3.0,Calm,Calm,-,N/A,,Clear,0,2013-02-06 14:15:00
8:35 AM,30.2,28.4,93,30.21,4.0,Calm,Calm,-,N/A,,Clear,0,2013-02-06 14:35:00
8:55 AM,32.0,32.0,100,30.21,5.0,SSE,5.8,-,N/A,,Clear,150,2013-02-06 14:55:00
9:35 AM,35.6,32.0,87,30.22,9.0,SE,6.9,-,N/A,,Clear,140,2013-02-06 15:35:00
9:55 AM,37.4,32.0,81,30.22,10.0,SE,5.8,-,N/A,,Clear,140,2013-02-06 15:55:00
10:15 AM,39.2,30.2,70,30.23,10.0,SSE,9.2,-,N/A,,Clear,150,2013-02-06 16:15:00
10:35 AM,41.0,30.2,65,30.23,10.0,SE,9.2,-,N/A,,Clear,140,2013-02-06 16:35:00
10:55 AM,42.8,28.4,57,30.22,10.0,SSE,9.2,-,N/A,,Clear,150,2013-02-06 16:55:00
11:15 AM,44.6,28.4,53,30.22,10.0,SSE,8.1,-,N/A,,Clear,160,2013-02-06 17:15:00
11:35 AM,44.6,28.4,53,30.21,10.0,SSE,8.1,-,N/A,,Clear,150,2013-02-06 17:35:00
11:55 AM,46.4,28.4,50,30.19,10.0,ESE,10.4,-,N/A,,Clear,120,2013-02-06 17:55:00
12:15 PM,46.4,28.4,50,30.17,10.0,ESE,9.2,-,N/A,,Clear,120,2013-02-06 18:15:00
12:35 PM,48.2,28.4,46,30.15,10.0,ESE,9.2,-,N/A,,Clear,120,2013-02-06 18:35:00
12:55 PM,48.2,28.4,46,30.14,10.0,SE,10.4,-,N/A,,Clear,130,2013-02-06 18:55:00
1:15 PM,50.0,28.4,43,30.13,10.0,ESE,10.4,16.1,N/A,,Clear,120,2013-02-06 19:15:00
1:35 PM,51.8,28.4,41,30.11,10.0,ESE,10.4,-,N/A,,Clear,120,2013-02-06 19:35:00
1:55 PM,51.8,28.4,41,30.11,10.0,ESE,11.5,-,N/A,,Clear,120,2013-02-06 19:55:00
2:15 PM,53.6,28.4,38,30.10,10.0,SE,10.4,-,N/A,,Clear,140,2013-02-06 20:15:00
2:35 PM,53.6,26.6,35,30.09,10.0,ESE,10.4,-,N/A,,Clear,120,2013-02-06 20:35:00
2:55 PM,55.4,26.6,33,30.09,10.0,SE,10.4,-,N/A,,Clear,130,2013-02-06 20:55:00
3:15 PM,55.4,26.6,33,30.09,10.0,SSE,10.4,-,N/A,,Clear,150,2013-02-06 21:15:00
3:35 PM,55.4,28.4,36,30.08,10.0,SE,11.5,-,N/A,,Clear,130,2013-02-06 21:35:00
3:55 PM,55.4,28.4,36,30.07,10.0,ESE,10.4,-,N/A,,Clear,120,2013-02-06 21:55:00
4:15 PM,53.6,28.4,38,30.07,10.0,ESE,11.5,-,N/A,,Clear,120,2013-02-06 22:15:00
4:35 PM,53.6,28.4,38,30.06,10.0,ESE,9.2,-,N/A,,Clear,120,2013-02-06 22:35:00
4:55 PM,51.8,28.4,41,30.06,10.0,ESE,13.8,-,N/A,,Clear,120,2013-02-06 22:55:00
5:15 PM,51.8,28.4,41,30.05,10.0,ESE,13.8,-,N/A,,Clear,120,2013-02-06 23:15:00
5:35 PM,50.0,28.4,43,30.05,10.0,SE,11.5,-,N/A,,Clear,130,2013-02-06 23:35:00
5:55 PM,50.0,28.4,43,30.05,10.0,SE,12.7,-,N/A,,Clear,130,2013-02-06 23:55:00
6:15 PM,48.2,28.4,46,30.05,10.0,SE,10.4,-,N/A,,Clear,130,2013-02-07 00:15:00
6:35 PM,48.2,28.4,46,30.05,10.0,SE,12.7,-,N/A,,Clear,130,2013-02-07 00:35:00
6:55 PM,48.2,28.4,46,30.05,10.0,SE,12.7,-,N/A,,Clear,130,2013-02-07 00:55:00
7:15 PM,48.2,28.4,46,30.05,10.0,SE,12.7,-,N/A,,Clear,130,2013-02-07 01:15:00
7:35 PM,46.4,28.4,50,30.04,10.0,SE,12.7,-,N/A,,Partly Cloudy,130,2013-02-07 01:35:00
7:55 PM,46.4,30.2,53,30.05,10.0,SE,11.5,-,N/A,,Partly Cloudy,130,2013-02-07 01:55:00
8:15 PM,46.4,28.4,50,30.05,10.0,SE,11.5,-,N/A,,Partly Cloudy,130,2013-02-07 02:15:00
8:35 PM,46.4,30.2,53,30.05,10.0,SE,11.5,-,N/A,,Partly Cloudy,130,2013-02-07 02:35:00
8:55 PM,46.4,28.4,50,30.06,10.0,SE,11.5,-,N/A,,Clear,130,2013-02-07 02:55:00
9:15 PM,46.4,30.2,53,30.06,10.0,SE,9.2,-,N/A,,Clear,140,2013-02-07 03:15:00
9:35 PM,46.4,30.2,53,30.05,10.0,SE,10.4,-,N/A,,Clear,140,2013-02-07 03:35:00
9:55 PM,46.4,30.2,53,30.05,10.0,SE,9.2,-,N/A,,Clear,140,2013-02-07 03:55:00
10:15 PM,46.4,32.0,57,30.05,10.0,SE,9.2,-,N/A,,Clear,140,2013-02-07 04:15:00
10:35 PM,44.6,32.0,61,30.05,10.0,SE,9.2,-,N/A,,Clear,140,2013-02-07 04:35:00
10:55 PM,44.6,32.0,61,30.04,10.0,SE,8.1,-,N/A,,Clear,140,2013-02-07 04:55:00
11:15 PM,44.6,32.0,61,30.04,10.0,SE,8.1,-,N/A,,Partly Cloudy,130,2013-02-07 05:15:00
11:35 PM,44.6,32.0,61,30.03,10.0,SE,8.1,-,N/A,,Scattered Clouds,130,2013-02-07 05:35:00
11:55 PM,44.6,32.0,61,30.02,10.0,ESE,9.2,-,N/A,,Scattered Clouds,120,2013-02-07 05:55:00